owner,sensor,date,latitude,longitude,air_pressure(mBar),qcFlag 
WAVCIS,ioos:station:WAVCIS:CSI16:1,2009-08-01T00:00:00Z,29.4012,-89.0355,1015.8,11111222 
WAVCIS,ioos:station:WAVCIS:CSI16:1,2009-08-01T01:00:00Z,29.4012,-89.0355,1016.52,11111222 
WAVCIS,ioos:station:WAVCIS:CSI16:1,2009-08-01T02:00:00Z,29.4012,-89.0355,1016.88,11111222 
WAVCIS,ioos:station:WAVCIS:CSI16:1,2009-08-01T03:00:00Z,29.4012,-89.0355,1017.44,11111222 
WAVCIS,ioos:station:WAVCIS:CSI16:1,2009-08-01T04:00:00Z,29.4012,-89.0355,1017.34,11111222 
WAVCIS,ioos:station:WAVCIS:CSI16:1,2009-08-01T05:00:00Z,29.4012,-89.0355,1017.04,11111222 
WAVCIS,ioos:station:WAVCIS:CSI16:1,2009-08-01T06:00:00Z,29.4012,-89.0355,1016.43,11111222 
WAVCIS,ioos:station:WAVCIS:CSI16:1,2009-08-01T07:00:00Z,29.4012,-89.0355,1015.65,11111222 
WAVCIS,ioos:station:WAVCIS:CSI16:1,2009-08-01T08:00:00Z,29.4012,-89.0355,1014.99,11111222 
WAVCIS,ioos:station:WAVCIS:CSI16:1,2009-08-01T09:00:00Z,29.4012,-89.0355,1015.07,11111222 
WAVCIS,ioos:station:WAVCIS:CSI16:1,2009-08-01T10:00:00Z,29.4012,-89.0355,1015.53,11111222 
WAVCIS,ioos:station:WAVCIS:CSI16:1,2009-08-01T11:00:00Z,29.4012,-89.0355,1015.88,11111222 
WAVCIS,ioos:station:WAVCIS:CSI16:1,2009-08-01T22:00:00Z,29.4012,-89.0355,1015.38,11111222 
WAVCIS,ioos:station:WAVCIS:CSI16:1,2009-08-01T23:00:00Z,29.4012,-89.0355,1015.17,11111222 
WAVCIS,ioos:station:WAVCIS:CSI16:1,2009-08-02T00:00:00Z,29.4012,-89.0355,1015.0,11111222 
WAVCIS,ioos:station:WAVCIS:CSI16:1,2009-08-02T01:00:00Z,29.4012,-89.0355,1015.1,11111222 
WAVCIS,ioos:station:WAVCIS:CSI16:1,2009-08-02T02:00:00Z,29.4012,-89.0355,1015.4,11111222 
WAVCIS,ioos:station:WAVCIS:CSI16:1,2009-08-02T03:00:00Z,29.4012,-89.0355,1015.78,11111222 
WAVCIS,ioos:station:WAVCIS:CSI16:1,2009-08-02T04:00:00Z,29.4012,-89.0355,1015.93,11111222 
WAVCIS,ioos:station:WAVCIS:CSI16:1,2009-08-02T05:00:00Z,29.4012,-89.0355,1016.12,11111222 
WAVCIS,ioos:station:WAVCIS:CSI16:1,2009-08-03T03:00:00Z,29.4012,-89.0355,1015.26,11111222 
WAVCIS,ioos:station:WAVCIS:CSI16:1,2009-08-03T04:00:00Z,29.4012,-89.0355,1015.67,11111222 
WAVCIS,ioos:station:WAVCIS:CSI16:1,2009-08-03T05:00:00Z,29.4012,-89.0355,1015.63,11111222 
WAVCIS,ioos:station:WAVCIS:CSI16:1,2009-08-03T13:00:00Z,29.4012,-89.0355,1016.07,11111222 
WAVCIS,ioos:station:WAVCIS:CSI16:1,2009-08-03T14:00:00Z,29.4012,-89.0355,1016.99,11111222 
WAVCIS,ioos:station:WAVCIS:CSI16:1,2009-08-03T15:00:00Z,29.4012,-89.0355,1017.44,11111222 
WAVCIS,ioos:station:WAVCIS:CSI16:1,2009-08-03T16:00:00Z,29.4012,-89.0355,1017.61,11111222 
WAVCIS,ioos:station:WAVCIS:CSI16:1,2009-08-03T17:00:00Z,29.4012,-89.0355,1017.6,11111222 
WAVCIS,ioos:station:WAVCIS:CSI16:1,2009-08-03T18:00:00Z,29.4012,-89.0355,1017.33,11111222 
WAVCIS,ioos:station:WAVCIS:CSI16:1,2009-08-03T19:00:00Z,29.4012,-89.0355,1016.48,11111222 
WAVCIS,ioos:station:WAVCIS:CSI16:1,2009-08-03T20:00:00Z,29.4012,-89.0355,1015.91,11111222 
WAVCIS,ioos:station:WAVCIS:CSI16:1,2009-08-03T21:00:00Z,29.4012,-89.0355,1015.47,11111222 
WAVCIS,ioos:station:WAVCIS:CSI16:1,2009-08-03T22:00:00Z,29.4012,-89.0355,1015.32,11111222 
WAVCIS,ioos:station:WAVCIS:CSI16:1,2009-08-03T23:00:00Z,29.4012,-89.0355,1014.88,11111222 
WAVCIS,ioos:station:WAVCIS:CSI16:1,2009-08-04T00:00:00Z,29.4012,-89.0355,1015.07,11111222 
WAVCIS,ioos:station:WAVCIS:CSI16:1,2009-08-04T01:00:00Z,29.4012,-89.0355,1014.83,11111222 
WAVCIS,ioos:station:WAVCIS:CSI16:1,2009-08-04T02:00:00Z,29.4012,-89.0355,1015.11,11111222 
WAVCIS,ioos:station:WAVCIS:CSI16:1,2009-08-04T03:00:00Z,29.4012,-89.0355,1015.47,11111222 
WAVCIS,ioos:station:WAVCIS:CSI16:1,2009-08-04T04:00:00Z,29.4012,-89.0355,1015.49,11111222 
WAVCIS,ioos:station:WAVCIS:CSI16:1,2009-08-04T05:00:00Z,29.4012,-89.0355,1015.53,11111222 
WAVCIS,ioos:station:WAVCIS:CSI16:1,2009-08-04T06:00:00Z,29.4012,-89.0355,1015.39,11111222 
WAVCIS,ioos:station:WAVCIS:CSI16:1,2009-08-04T07:00:00Z,29.4012,-89.0355,1015.29,11111222 
WAVCIS,ioos:station:WAVCIS:CSI16:1,2009-08-04T08:00:00Z,29.4012,-89.0355,1015.11,11111222 
WAVCIS,ioos:station:WAVCIS:CSI16:1,2009-08-04T09:00:00Z,29.4012,-89.0355,1015.18,11111222 
WAVCIS,ioos:station:WAVCIS:CSI16:1,2009-08-04T10:00:00Z,29.4012,-89.0355,1015.41,11111222 
WAVCIS,ioos:station:WAVCIS:CSI16:1,2009-08-04T11:00:00Z,29.4012,-89.0355,1015.73,11111222 
WAVCIS,ioos:station:WAVCIS:CSI16:1,2009-08-04T12:00:00Z,29.4012,-89.0355,1015.96,11111222 
WAVCIS,ioos:station:WAVCIS:CSI16:1,2009-08-04T13:00:00Z,29.4012,-89.0355,1016.43,11111222 
WAVCIS,ioos:station:WAVCIS:CSI16:1,2009-08-04T14:00:00Z,29.4012,-89.0355,1016.88,11111222 
WAVCIS,ioos:station:WAVCIS:CSI16:1,2009-08-04T15:00:00Z,29.4012,-89.0355,1017.43,11111222 
WAVCIS,ioos:station:WAVCIS:CSI16:1,2009-08-04T16:00:00Z,29.4012,-89.0355,1017.51,11111222 
WAVCIS,ioos:station:WAVCIS:CSI16:1,2009-08-04T17:00:00Z,29.4012,-89.0355,1017.41,11111222 
WAVCIS,ioos:station:WAVCIS:CSI16:1,2009-08-04T18:00:00Z,29.4012,-89.0355,1017.25,11111222 
WAVCIS,ioos:station:WAVCIS:CSI16:1,2009-08-04T19:00:00Z,29.4012,-89.0355,1016.88,11111222 
WAVCIS,ioos:station:WAVCIS:CSI16:1,2009-08-04T20:00:00Z,29.4012,-89.0355,1016.37,11111222 
WAVCIS,ioos:station:WAVCIS:CSI16:1,2009-08-04T21:00:00Z,29.4012,-89.0355,1015.47,11111222 
WAVCIS,ioos:station:WAVCIS:CSI16:1,2009-08-04T22:00:00Z,29.4012,-89.0355,1015.27,11111222 
WAVCIS,ioos:station:WAVCIS:CSI16:1,2009-08-04T23:00:00Z,29.4012,-89.0355,1015.07,11111222 
WAVCIS,ioos:station:WAVCIS:CSI16:1,2009-08-05T00:00:00Z,29.4012,-89.0355,1014.87,11111222 
WAVCIS,ioos:station:WAVCIS:CSI16:1,2009-08-05T01:00:00Z,29.4012,-89.0355,1014.63,11111222 
WAVCIS,ioos:station:WAVCIS:CSI16:1,2009-08-05T02:00:00Z,29.4012,-89.0355,1014.82,11111222 
WAVCIS,ioos:station:WAVCIS:CSI16:1,2009-08-05T03:00:00Z,29.4012,-89.0355,1015.23,11111222 
WAVCIS,ioos:station:WAVCIS:CSI16:1,2009-08-05T04:00:00Z,29.4012,-89.0355,1015.33,11111222 
WAVCIS,ioos:station:WAVCIS:CSI16:1,2009-08-05T05:00:00Z,29.4012,-89.0355,1015.25,11111222 
WAVCIS,ioos:station:WAVCIS:CSI16:1,2009-08-05T06:00:00Z,29.4012,-89.0355,1015.07,11111222 
WAVCIS,ioos:station:WAVCIS:CSI16:1,2009-08-05T07:00:00Z,29.4012,-89.0355,1014.84,11111222 
WAVCIS,ioos:station:WAVCIS:CSI16:1,2009-08-05T08:00:00Z,29.4012,-89.0355,1014.89,11111222 
WAVCIS,ioos:station:WAVCIS:CSI16:1,2009-08-05T09:00:00Z,29.4012,-89.0355,1014.6,11111222 
WAVCIS,ioos:station:WAVCIS:CSI16:1,2009-08-05T10:00:00Z,29.4012,-89.0355,1014.75,11111222 
WAVCIS,ioos:station:WAVCIS:CSI16:1,2009-08-05T11:00:00Z,29.4012,-89.0355,1014.81,11111222 
WAVCIS,ioos:station:WAVCIS:CSI16:1,2009-08-05T12:00:00Z,29.4012,-89.0355,1015.32,11111222 
WAVCIS,ioos:station:WAVCIS:CSI16:1,2009-08-05T13:00:00Z,29.4012,-89.0355,1016.02,11111222 
WAVCIS,ioos:station:WAVCIS:CSI16:1,2009-08-05T14:00:00Z,29.4012,-89.0355,1016.62,11111222 
WAVCIS,ioos:station:WAVCIS:CSI16:1,2009-08-05T15:00:00Z,29.4012,-89.0355,1017.16,11111222 
WAVCIS,ioos:station:WAVCIS:CSI16:1,2009-08-05T16:00:00Z,29.4012,-89.0355,1017.05,11111222 
WAVCIS,ioos:station:WAVCIS:CSI16:1,2009-08-05T17:00:00Z,29.4012,-89.0355,1016.65,11111222 
WAVCIS,ioos:station:WAVCIS:CSI16:1,2009-08-05T18:00:00Z,29.4012,-89.0355,1016.93,11111222 
WAVCIS,ioos:station:WAVCIS:CSI16:1,2009-08-05T19:00:00Z,29.4012,-89.0355,1016.48,11111222 
WAVCIS,ioos:station:WAVCIS:CSI16:1,2009-08-05T20:00:00Z,29.4012,-89.0355,1015.39,11111222 
WAVCIS,ioos:station:WAVCIS:CSI16:1,2009-08-05T21:00:00Z,29.4012,-89.0355,1014.02,11111222 
WAVCIS,ioos:station:WAVCIS:CSI16:1,2009-08-05T22:00:00Z,29.4012,-89.0355,1013.32,11111222 
WAVCIS,ioos:station:WAVCIS:CSI16:1,2009-08-05T23:00:00Z,29.4012,-89.0355,1013.31,11111222 
WAVCIS,ioos:station:WAVCIS:CSI16:1,2009-08-06T00:00:00Z,29.4012,-89.0355,1013.14,11111222 
WAVCIS,ioos:station:WAVCIS:CSI16:1,2009-08-06T01:00:00Z,29.4012,-89.0355,1013.3,11111222 
WAVCIS,ioos:station:WAVCIS:CSI16:1,2009-08-06T02:00:00Z,29.4012,-89.0355,1013.64,11111222 
WAVCIS,ioos:station:WAVCIS:CSI16:1,2009-08-06T03:00:00Z,29.4012,-89.0355,1015.61,11111222 
WAVCIS,ioos:station:WAVCIS:CSI16:1,2009-08-06T04:00:00Z,29.4012,-89.0355,1015.04,11111222 
WAVCIS,ioos:station:WAVCIS:CSI16:1,2009-08-06T05:00:00Z,29.4012,-89.0355,1014.42,11111222 
WAVCIS,ioos:station:WAVCIS:CSI16:1,2009-08-06T06:00:00Z,29.4012,-89.0355,1014.27,11111222 
WAVCIS,ioos:station:WAVCIS:CSI16:1,2009-08-06T07:00:00Z,29.4012,-89.0355,1014.04,11111222 
WAVCIS,ioos:station:WAVCIS:CSI16:1,2009-08-06T08:00:00Z,29.4012,-89.0355,1013.0,11111222 
WAVCIS,ioos:station:WAVCIS:CSI16:1,2009-08-06T09:00:00Z,29.4012,-89.0355,1012.37,11111222 
WAVCIS,ioos:station:WAVCIS:CSI16:1,2009-08-06T10:00:00Z,29.4012,-89.0355,1012.06,11111222 
WAVCIS,ioos:station:WAVCIS:CSI16:1,2009-08-06T11:00:00Z,29.4012,-89.0355,1012.86,11111222 
WAVCIS,ioos:station:WAVCIS:CSI16:1,2009-08-06T12:00:00Z,29.4012,-89.0355,1013.33,11111222 
WAVCIS,ioos:station:WAVCIS:CSI16:1,2009-08-06T13:00:00Z,29.4012,-89.0355,1013.88,11111222 
WAVCIS,ioos:station:WAVCIS:CSI16:1,2009-08-06T14:00:00Z,29.4012,-89.0355,1014.35,11111222 
WAVCIS,ioos:station:WAVCIS:CSI16:1,2009-08-06T15:00:00Z,29.4012,-89.0355,1014.76,11111222 
WAVCIS,ioos:station:WAVCIS:CSI16:1,2009-08-06T16:00:00Z,29.4012,-89.0355,1015.28,11111222 
WAVCIS,ioos:station:WAVCIS:CSI16:1,2009-08-06T17:00:00Z,29.4012,-89.0355,1015.44,11111222 
WAVCIS,ioos:station:WAVCIS:CSI16:1,2009-08-06T18:00:00Z,29.4012,-89.0355,1015.24,11111222 
WAVCIS,ioos:station:WAVCIS:CSI16:1,2009-08-06T19:00:00Z,29.4012,-89.0355,1014.8,11111222 
WAVCIS,ioos:station:WAVCIS:CSI16:1,2009-08-06T20:00:00Z,29.4012,-89.0355,1014.11,11111222 
WAVCIS,ioos:station:WAVCIS:CSI16:1,2009-08-06T21:00:00Z,29.4012,-89.0355,1013.37,11111222 
WAVCIS,ioos:station:WAVCIS:CSI16:1,2009-08-06T22:00:00Z,29.4012,-89.0355,1013.13,11111222 
WAVCIS,ioos:station:WAVCIS:CSI16:1,2009-08-06T23:00:00Z,29.4012,-89.0355,1013.13,11111222 
WAVCIS,ioos:station:WAVCIS:CSI16:1,2009-08-07T00:00:00Z,29.4012,-89.0355,1013.58,11111222 
WAVCIS,ioos:station:WAVCIS:CSI16:1,2009-08-07T01:00:00Z,29.4012,-89.0355,1013.94,11111222 
WAVCIS,ioos:station:WAVCIS:CSI16:1,2009-08-07T02:00:00Z,29.4012,-89.0355,1014.53,11111222 
WAVCIS,ioos:station:WAVCIS:CSI16:1,2009-08-07T03:00:00Z,29.4012,-89.0355,1014.79,11111222 
WAVCIS,ioos:station:WAVCIS:CSI16:1,2009-08-07T04:00:00Z,29.4012,-89.0355,1014.68,11111222 
WAVCIS,ioos:station:WAVCIS:CSI16:1,2009-08-07T05:00:00Z,29.4012,-89.0355,1014.4,11111222 
WAVCIS,ioos:station:WAVCIS:CSI16:1,2009-08-07T06:00:00Z,29.4012,-89.0355,1014.05,11111222 
WAVCIS,ioos:station:WAVCIS:CSI16:1,2009-08-07T07:00:00Z,29.4012,-89.0355,1013.71,11111222 
WAVCIS,ioos:station:WAVCIS:CSI16:1,2009-08-07T08:00:00Z,29.4012,-89.0355,1013.68,11111222 
WAVCIS,ioos:station:WAVCIS:CSI16:1,2009-08-07T09:00:00Z,29.4012,-89.0355,1013.51,11111222 
WAVCIS,ioos:station:WAVCIS:CSI16:1,2009-08-07T10:00:00Z,29.4012,-89.0355,1013.7,11111222 
WAVCIS,ioos:station:WAVCIS:CSI16:1,2009-08-07T11:00:00Z,29.4012,-89.0355,1014.09,11111222 
WAVCIS,ioos:station:WAVCIS:CSI16:1,2009-08-07T12:00:00Z,29.4012,-89.0355,1014.82,11111222 
WAVCIS,ioos:station:WAVCIS:CSI16:1,2009-08-07T13:00:00Z,29.4012,-89.0355,1015.54,11111222 
WAVCIS,ioos:station:WAVCIS:CSI16:1,2009-08-07T14:00:00Z,29.4012,-89.0355,1015.91,11111222 
WAVCIS,ioos:station:WAVCIS:CSI16:1,2009-08-07T15:00:00Z,29.4012,-89.0355,1016.24,11111222 
WAVCIS,ioos:station:WAVCIS:CSI16:1,2009-08-07T16:00:00Z,29.4012,-89.0355,1016.58,11111222 
WAVCIS,ioos:station:WAVCIS:CSI16:1,2009-08-07T17:00:00Z,29.4012,-89.0355,1016.64,11111222 
WAVCIS,ioos:station:WAVCIS:CSI16:1,2009-08-07T18:00:00Z,29.4012,-89.0355,1016.18,11111222 
WAVCIS,ioos:station:WAVCIS:CSI16:1,2009-08-07T19:00:00Z,29.4012,-89.0355,1016.03,11111222 
WAVCIS,ioos:station:WAVCIS:CSI16:1,2009-08-07T20:00:00Z,29.4012,-89.0355,1015.47,11111222 
WAVCIS,ioos:station:WAVCIS:CSI16:1,2009-08-07T21:00:00Z,29.4012,-89.0355,1014.88,11111222 
WAVCIS,ioos:station:WAVCIS:CSI16:1,2009-08-07T22:00:00Z,29.4012,-89.0355,1014.66,11111222 
WAVCIS,ioos:station:WAVCIS:CSI16:1,2009-08-07T23:00:00Z,29.4012,-89.0355,1014.16,11111222 
WAVCIS,ioos:station:WAVCIS:CSI16:1,2009-08-08T00:00:00Z,29.4012,-89.0355,1014.26,11111222 
WAVCIS,ioos:station:WAVCIS:CSI16:1,2009-08-08T01:00:00Z,29.4012,-89.0355,1014.71,11111222 
WAVCIS,ioos:station:WAVCIS:CSI16:1,2009-08-08T02:00:00Z,29.4012,-89.0355,1015.0,11111222 
WAVCIS,ioos:station:WAVCIS:CSI16:1,2009-08-08T03:00:00Z,29.4012,-89.0355,1015.28,11111222 
WAVCIS,ioos:station:WAVCIS:CSI16:1,2009-08-08T04:00:00Z,29.4012,-89.0355,1016.31,11111222 
WAVCIS,ioos:station:WAVCIS:CSI16:1,2009-08-08T05:00:00Z,29.4012,-89.0355,1016.53,11111222 
WAVCIS,ioos:station:WAVCIS:CSI16:1,2009-08-08T06:00:00Z,29.4012,-89.0355,1016.47,11111222 
WAVCIS,ioos:station:WAVCIS:CSI16:1,2009-08-08T07:00:00Z,29.4012,-89.0355,1015.9,11111222 
WAVCIS,ioos:station:WAVCIS:CSI16:1,2009-08-08T08:00:00Z,29.4012,-89.0355,1015.98,11111222 
WAVCIS,ioos:station:WAVCIS:CSI16:1,2009-08-08T09:00:00Z,29.4012,-89.0355,1015.55,11111222 
WAVCIS,ioos:station:WAVCIS:CSI16:1,2009-08-08T10:00:00Z,29.4012,-89.0355,1015.35,11111222 
WAVCIS,ioos:station:WAVCIS:CSI16:1,2009-08-08T11:00:00Z,29.4012,-89.0355,1015.6,11111222 
WAVCIS,ioos:station:WAVCIS:CSI16:1,2009-08-08T12:00:00Z,29.4012,-89.0355,1016.03,11111222 
WAVCIS,ioos:station:WAVCIS:CSI16:1,2009-08-08T13:00:00Z,29.4012,-89.0355,1016.24,11111222 
WAVCIS,ioos:station:WAVCIS:CSI16:1,2009-08-08T14:00:00Z,29.4012,-89.0355,1016.91,11111222 
WAVCIS,ioos:station:WAVCIS:CSI16:1,2009-08-08T15:00:00Z,29.4012,-89.0355,1017.22,11111222 
WAVCIS,ioos:station:WAVCIS:CSI16:1,2009-08-08T16:00:00Z,29.4012,-89.0355,1017.32,11111222 
WAVCIS,ioos:station:WAVCIS:CSI16:1,2009-08-08T17:00:00Z,29.4012,-89.0355,1017.15,11111222 
WAVCIS,ioos:station:WAVCIS:CSI16:1,2009-08-08T18:00:00Z,29.4012,-89.0355,1017.0,11111222 
WAVCIS,ioos:station:WAVCIS:CSI16:1,2009-08-08T19:00:00Z,29.4012,-89.0355,1017.02,11111222 
WAVCIS,ioos:station:WAVCIS:CSI16:1,2009-08-08T20:00:00Z,29.4012,-89.0355,1016.31,11111222 
WAVCIS,ioos:station:WAVCIS:CSI16:1,2009-08-08T21:00:00Z,29.4012,-89.0355,1016.03,11111222 
WAVCIS,ioos:station:WAVCIS:CSI16:1,2009-08-08T22:00:00Z,29.4012,-89.0355,1016.24,11111222 
WAVCIS,ioos:station:WAVCIS:CSI16:1,2009-08-08T23:00:00Z,29.4012,-89.0355,1016.26,11111222 
WAVCIS,ioos:station:WAVCIS:CSI16:1,2009-08-09T00:00:00Z,29.4012,-89.0355,1015.86,11111222 
WAVCIS,ioos:station:WAVCIS:CSI16:1,2009-08-09T01:00:00Z,29.4012,-89.0355,1016.28,11111222 
WAVCIS,ioos:station:WAVCIS:CSI16:1,2009-08-09T02:00:00Z,29.4012,-89.0355,1016.59,11111222 
WAVCIS,ioos:station:WAVCIS:CSI16:1,2009-08-09T03:00:00Z,29.4012,-89.0355,1016.73,11111222 
WAVCIS,ioos:station:WAVCIS:CSI16:1,2009-08-09T04:00:00Z,29.4012,-89.0355,1016.83,11111222 
WAVCIS,ioos:station:WAVCIS:CSI16:1,2009-08-09T05:00:00Z,29.4012,-89.0355,1017.1,11111222 
WAVCIS,ioos:station:WAVCIS:CSI16:1,2009-08-09T06:00:00Z,29.4012,-89.0355,1017.01,11111222 
WAVCIS,ioos:station:WAVCIS:CSI16:1,2009-08-09T07:00:00Z,29.4012,-89.0355,1017.01,11111222 
WAVCIS,ioos:station:WAVCIS:CSI16:1,2009-08-09T08:00:00Z,29.4012,-89.0355,1016.98,11111222 
WAVCIS,ioos:station:WAVCIS:CSI16:1,2009-08-09T09:00:00Z,29.4012,-89.0355,1016.99,11111222 
WAVCIS,ioos:station:WAVCIS:CSI16:1,2009-08-09T10:00:00Z,29.4012,-89.0355,1017.23,11111222 
WAVCIS,ioos:station:WAVCIS:CSI16:1,2009-08-09T11:00:00Z,29.4012,-89.0355,1017.78,11111222 
WAVCIS,ioos:station:WAVCIS:CSI16:1,2009-08-09T12:00:00Z,29.4012,-89.0355,1018.24,11111222 
WAVCIS,ioos:station:WAVCIS:CSI16:1,2009-08-09T13:00:00Z,29.4012,-89.0355,1018.3,11111222 
WAVCIS,ioos:station:WAVCIS:CSI16:1,2009-08-09T14:00:00Z,29.4012,-89.0355,1019.19,11111222 
WAVCIS,ioos:station:WAVCIS:CSI16:1,2009-08-09T15:00:00Z,29.4012,-89.0355,1019.54,11111222 
WAVCIS,ioos:station:WAVCIS:CSI16:1,2009-08-09T16:00:00Z,29.4012,-89.0355,1019.93,11111222 
WAVCIS,ioos:station:WAVCIS:CSI16:1,2009-08-09T17:00:00Z,29.4012,-89.0355,1019.71,11111222 
WAVCIS,ioos:station:WAVCIS:CSI16:1,2009-08-09T18:00:00Z,29.4012,-89.0355,1019.69,11111222 
WAVCIS,ioos:station:WAVCIS:CSI16:1,2009-08-09T19:00:00Z,29.4012,-89.0355,1019.33,11111222 
WAVCIS,ioos:station:WAVCIS:CSI16:1,2009-08-09T20:00:00Z,29.4012,-89.0355,1018.81,11111222 
WAVCIS,ioos:station:WAVCIS:CSI16:1,2009-08-09T21:00:00Z,29.4012,-89.0355,1018.24,11111222 
WAVCIS,ioos:station:WAVCIS:CSI16:1,2009-08-09T22:00:00Z,29.4012,-89.0355,1018.42,11111222 
WAVCIS,ioos:station:WAVCIS:CSI16:1,2009-08-09T23:00:00Z,29.4012,-89.0355,1018.58,11111222 
WAVCIS,ioos:station:WAVCIS:CSI16:1,2009-08-10T00:00:00Z,29.4012,-89.0355,1018.52,11111222 
WAVCIS,ioos:station:WAVCIS:CSI16:1,2009-08-10T01:00:00Z,29.4012,-89.0355,1018.62,11111222 
WAVCIS,ioos:station:WAVCIS:CSI16:1,2009-08-10T02:00:00Z,29.4012,-89.0355,1018.8,11111222 
WAVCIS,ioos:station:WAVCIS:CSI16:1,2009-08-10T03:00:00Z,29.4012,-89.0355,1018.61,11111222 
WAVCIS,ioos:station:WAVCIS:CSI16:1,2009-08-10T04:00:00Z,29.4012,-89.0355,1018.34,11111222 
WAVCIS,ioos:station:WAVCIS:CSI16:1,2009-08-10T05:00:00Z,29.4012,-89.0355,1018.08,11111222 
WAVCIS,ioos:station:WAVCIS:CSI16:1,2009-08-10T06:00:00Z,29.4012,-89.0355,1017.41,11111222 
WAVCIS,ioos:station:WAVCIS:CSI16:1,2009-08-10T07:00:00Z,29.4012,-89.0355,1017.4,11111222 
WAVCIS,ioos:station:WAVCIS:CSI16:1,2009-08-10T08:00:00Z,29.4012,-89.0355,1017.39,11111222 
WAVCIS,ioos:station:WAVCIS:CSI16:1,2009-08-10T09:00:00Z,29.4012,-89.0355,1017.66,11111222 
WAVCIS,ioos:station:WAVCIS:CSI16:1,2009-08-10T10:00:00Z,29.4012,-89.0355,1017.95,11111222 
WAVCIS,ioos:station:WAVCIS:CSI16:1,2009-08-10T11:00:00Z,29.4012,-89.0355,1018.24,11111222 
WAVCIS,ioos:station:WAVCIS:CSI16:1,2009-08-10T12:00:00Z,29.4012,-89.0355,1018.58,11111222 
WAVCIS,ioos:station:WAVCIS:CSI16:1,2009-08-10T13:00:00Z,29.4012,-89.0355,1019.38,11111222 
WAVCIS,ioos:station:WAVCIS:CSI16:1,2009-08-10T14:00:00Z,29.4012,-89.0355,1019.8,11111222 
WAVCIS,ioos:station:WAVCIS:CSI16:1,2009-08-10T15:00:00Z,29.4012,-89.0355,1020.3,11111222 
WAVCIS,ioos:station:WAVCIS:CSI16:1,2009-08-10T16:00:00Z,29.4012,-89.0355,1020.42,11111222 
WAVCIS,ioos:station:WAVCIS:CSI16:1,2009-08-10T17:00:00Z,29.4012,-89.0355,1019.26,11111222 
WAVCIS,ioos:station:WAVCIS:CSI16:1,2009-08-10T18:00:00Z,29.4012,-89.0355,1019.2,11111222 
WAVCIS,ioos:station:WAVCIS:CSI16:1,2009-08-10T19:00:00Z,29.4012,-89.0355,1018.92,11111222 
WAVCIS,ioos:station:WAVCIS:CSI16:1,2009-08-10T20:00:00Z,29.4012,-89.0355,1018.31,11111222 
WAVCIS,ioos:station:WAVCIS:CSI16:1,2009-08-10T21:00:00Z,29.4012,-89.0355,1017.52,11111222 
WAVCIS,ioos:station:WAVCIS:CSI16:1,2009-08-10T22:00:00Z,29.4012,-89.0355,1017.08,11111222 
WAVCIS,ioos:station:WAVCIS:CSI16:1,2009-08-10T23:00:00Z,29.4012,-89.0355,1016.53,11111222 
WAVCIS,ioos:station:WAVCIS:CSI16:1,2009-08-11T00:00:00Z,29.4012,-89.0355,1016.39,11111222 
WAVCIS,ioos:station:WAVCIS:CSI16:1,2009-08-11T01:00:00Z,29.4012,-89.0355,1016.78,11111222 
WAVCIS,ioos:station:WAVCIS:CSI16:1,2009-08-11T02:00:00Z,29.4012,-89.0355,1016.73,11111222 
WAVCIS,ioos:station:WAVCIS:CSI16:1,2009-08-11T03:00:00Z,29.4012,-89.0355,1017.2,11111222 
WAVCIS,ioos:station:WAVCIS:CSI16:1,2009-08-11T04:00:00Z,29.4012,-89.0355,1016.95,11111222 
WAVCIS,ioos:station:WAVCIS:CSI16:1,2009-08-11T05:00:00Z,29.4012,-89.0355,1016.98,11111222 
WAVCIS,ioos:station:WAVCIS:CSI16:1,2009-08-11T06:00:00Z,29.4012,-89.0355,1016.66,11111222 
WAVCIS,ioos:station:WAVCIS:CSI16:1,2009-08-11T07:00:00Z,29.4012,-89.0355,1016.24,11111222 
WAVCIS,ioos:station:WAVCIS:CSI16:1,2009-08-11T08:00:00Z,29.4012,-89.0355,1016.1,11111222 
WAVCIS,ioos:station:WAVCIS:CSI16:1,2009-08-11T09:00:00Z,29.4012,-89.0355,1015.85,11111222 
WAVCIS,ioos:station:WAVCIS:CSI16:1,2009-08-11T10:00:00Z,29.4012,-89.0355,1015.89,11111222 
WAVCIS,ioos:station:WAVCIS:CSI16:1,2009-08-11T11:00:00Z,29.4012,-89.0355,1015.87,11111222 
WAVCIS,ioos:station:WAVCIS:CSI16:1,2009-08-11T12:00:00Z,29.4012,-89.0355,1016.6,11111222 
WAVCIS,ioos:station:WAVCIS:CSI16:1,2009-08-11T13:00:00Z,29.4012,-89.0355,1017.23,11111222 
WAVCIS,ioos:station:WAVCIS:CSI16:1,2009-08-11T14:00:00Z,29.4012,-89.0355,1017.75,11111222 
WAVCIS,ioos:station:WAVCIS:CSI16:1,2009-08-11T15:00:00Z,29.4012,-89.0355,1017.63,11111222 
WAVCIS,ioos:station:WAVCIS:CSI16:1,2009-08-11T16:00:00Z,29.4012,-89.0355,1018.34,11111222 
WAVCIS,ioos:station:WAVCIS:CSI16:1,2009-08-11T17:00:00Z,29.4012,-89.0355,1017.95,11111222 
WAVCIS,ioos:station:WAVCIS:CSI16:1,2009-08-11T18:00:00Z,29.4012,-89.0355,1017.57,11111222 
WAVCIS,ioos:station:WAVCIS:CSI16:1,2009-08-11T19:00:00Z,29.4012,-89.0355,1016.32,11111222 
WAVCIS,ioos:station:WAVCIS:CSI16:1,2009-08-11T20:00:00Z,29.4012,-89.0355,1015.46,11111222 
WAVCIS,ioos:station:WAVCIS:CSI16:1,2009-08-11T21:00:00Z,29.4012,-89.0355,1015.37,11111222 
WAVCIS,ioos:station:WAVCIS:CSI16:1,2009-08-11T22:00:00Z,29.4012,-89.0355,1014.87,11111222 
WAVCIS,ioos:station:WAVCIS:CSI16:1,2009-08-11T23:00:00Z,29.4012,-89.0355,1014.78,11111222 
WAVCIS,ioos:station:WAVCIS:CSI16:1,2009-08-12T00:00:00Z,29.4012,-89.0355,1014.2,11111222 
WAVCIS,ioos:station:WAVCIS:CSI16:1,2009-08-12T01:00:00Z,29.4012,-89.0355,1014.0,11111222 
WAVCIS,ioos:station:WAVCIS:CSI16:1,2009-08-12T02:00:00Z,29.4012,-89.0355,1014.31,11111222 
WAVCIS,ioos:station:WAVCIS:CSI16:1,2009-08-12T03:00:00Z,29.4012,-89.0355,1015.11,11111222 
WAVCIS,ioos:station:WAVCIS:CSI16:1,2009-08-12T04:00:00Z,29.4012,-89.0355,1014.41,11111222 
WAVCIS,ioos:station:WAVCIS:CSI16:1,2009-08-12T05:00:00Z,29.4012,-89.0355,1014.89,11111222 
WAVCIS,ioos:station:WAVCIS:CSI16:1,2009-08-12T06:00:00Z,29.4012,-89.0355,1014.11,11111222 
WAVCIS,ioos:station:WAVCIS:CSI16:1,2009-08-12T07:00:00Z,29.4012,-89.0355,1013.55,11111222 
WAVCIS,ioos:station:WAVCIS:CSI16:1,2009-08-12T08:00:00Z,29.4012,-89.0355,1013.55,11111222 
WAVCIS,ioos:station:WAVCIS:CSI16:1,2009-08-12T09:00:00Z,29.4012,-89.0355,1013.23,11111222 
WAVCIS,ioos:station:WAVCIS:CSI16:1,2009-08-12T10:00:00Z,29.4012,-89.0355,1013.08,11111222 
WAVCIS,ioos:station:WAVCIS:CSI16:1,2009-08-12T11:00:00Z,29.4012,-89.0355,1013.3,11111222 
WAVCIS,ioos:station:WAVCIS:CSI16:1,2009-08-12T12:00:00Z,29.4012,-89.0355,1013.4,11111222 
WAVCIS,ioos:station:WAVCIS:CSI16:1,2009-08-12T13:00:00Z,29.4012,-89.0355,1014.01,11111222 
WAVCIS,ioos:station:WAVCIS:CSI16:1,2009-08-12T14:00:00Z,29.4012,-89.0355,1013.87,11111222 
WAVCIS,ioos:station:WAVCIS:CSI16:1,2009-08-12T15:00:00Z,29.4012,-89.0355,1015.0,11111222 
WAVCIS,ioos:station:WAVCIS:CSI16:1,2009-08-12T16:00:00Z,29.4012,-89.0355,1014.74,11111222 
WAVCIS,ioos:station:WAVCIS:CSI16:1,2009-08-12T17:00:00Z,29.4012,-89.0355,1015.2,11111222 
WAVCIS,ioos:station:WAVCIS:CSI16:1,2009-08-12T18:00:00Z,29.4012,-89.0355,1014.58,11111222 
WAVCIS,ioos:station:WAVCIS:CSI16:1,2009-08-12T19:00:00Z,29.4012,-89.0355,1015.04,11111222 
WAVCIS,ioos:station:WAVCIS:CSI16:1,2009-08-12T20:00:00Z,29.4012,-89.0355,1013.35,11111222 
WAVCIS,ioos:station:WAVCIS:CSI16:1,2009-08-12T21:00:00Z,29.4012,-89.0355,1013.16,11111222 
WAVCIS,ioos:station:WAVCIS:CSI16:1,2009-08-12T22:00:00Z,29.4012,-89.0355,1012.01,11111222 
WAVCIS,ioos:station:WAVCIS:CSI16:1,2009-08-12T23:00:00Z,29.4012,-89.0355,1011.51,11111222 
WAVCIS,ioos:station:WAVCIS:CSI16:1,2009-08-13T00:00:00Z,29.4012,-89.0355,1011.37,11111222 
WAVCIS,ioos:station:WAVCIS:CSI16:1,2009-08-13T01:00:00Z,29.4012,-89.0355,1012.24,11111222 
WAVCIS,ioos:station:WAVCIS:CSI16:1,2009-08-13T02:00:00Z,29.4012,-89.0355,1012.54,11111222 
WAVCIS,ioos:station:WAVCIS:CSI16:1,2009-08-13T03:00:00Z,29.4012,-89.0355,1012.97,11111222 
WAVCIS,ioos:station:WAVCIS:CSI16:1,2009-08-13T04:00:00Z,29.4012,-89.0355,1013.12,11111222 
WAVCIS,ioos:station:WAVCIS:CSI16:1,2009-08-13T05:00:00Z,29.4012,-89.0355,1013.19,11111222 
WAVCIS,ioos:station:WAVCIS:CSI16:1,2009-08-13T06:00:00Z,29.4012,-89.0355,1012.86,11111222 
WAVCIS,ioos:station:WAVCIS:CSI16:1,2009-08-13T07:00:00Z,29.4012,-89.0355,1012.66,11111222 
WAVCIS,ioos:station:WAVCIS:CSI16:1,2009-08-13T08:00:00Z,29.4012,-89.0355,1012.44,11111222 
WAVCIS,ioos:station:WAVCIS:CSI16:1,2009-08-13T09:00:00Z,29.4012,-89.0355,1012.23,11111222 
WAVCIS,ioos:station:WAVCIS:CSI16:1,2009-08-13T10:00:00Z,29.4012,-89.0355,1012.17,11111222 
WAVCIS,ioos:station:WAVCIS:CSI16:1,2009-08-13T11:00:00Z,29.4012,-89.0355,1012.15,11111222 
WAVCIS,ioos:station:WAVCIS:CSI16:1,2009-08-13T12:00:00Z,29.4012,-89.0355,1012.72,11111222 